VBD201 CYEG-CYVR

Flight info

Callsign VBD201
Flight time N/A
Altitude 34000
Route ANDIE Q860 MERYT DCT BOOTH CANUC6
Aircraft A20N/M-SDE2E3FGHIJ1RWXY/LB1

Departure

Time N/A
Airport Edmonton International Airport (CYEG)

Arrival

Time 2026-05-07 09:05
Airport Vancouver International Airport (CYVR)
Time Latitude Longitude Altitude Speed Heading
2026-05-07 08:15 51.37977 -118.06322 33966 ft 422 kts 242°
2026-05-07 08:16 51.36215 -118.10081 33975 ft 424 kts 242°
2026-05-07 08:16 51.32671 -118.17615 33979 ft 424 kts 242°
2026-05-07 08:17 51.29120 -118.25147 33974 ft 424 kts 242°
2026-05-07 08:17 51.25594 -118.32592 33979 ft 423 kts 242°
2026-05-07 08:18 51.22044 -118.40069 33962 ft 421 kts 242°
2026-05-07 08:18 51.18461 -118.47595 33977 ft 422 kts 242°
2026-05-07 08:19 51.14933 -118.54983 33966 ft 422 kts 242°
2026-05-07 08:19 51.11377 -118.62415 33966 ft 422 kts 242°
2026-05-07 08:20 51.07809 -118.69852 33961 ft 424 kts 241°
2026-05-07 08:20 51.04226 -118.77290 33966 ft 424 kts 241°
2026-05-07 08:21 51.00634 -118.84729 33957 ft 423 kts 241°
2026-05-07 08:21 50.97049 -118.92127 33955 ft 423 kts 241°
2026-05-07 08:22 50.93461 -118.99519 33954 ft 423 kts 241°
2026-05-07 08:22 50.89868 -119.06897 33948 ft 423 kts 241°
2026-05-07 08:23 50.86273 -119.14250 33952 ft 423 kts 241°
2026-05-07 08:23 50.82663 -119.21623 33942 ft 424 kts 241°
2026-05-07 08:24 50.79053 -119.28974 33949 ft 424 kts 241°
2026-05-07 08:24 50.75435 -119.36318 33940 ft 424 kts 242°
2026-05-07 08:25 50.71841 -119.43598 33952 ft 423 kts 241°
2026-05-07 08:25 50.68199 -119.50948 33951 ft 422 kts 241°
2026-05-07 08:26 50.62766 -119.61876 33945 ft 422 kts 241°
2026-05-07 08:26 50.59146 -119.69133 33939 ft 424 kts 240°
2026-05-07 08:27 50.55497 -119.76426 33968 ft 423 kts 240°
2026-05-07 08:27 50.51855 -119.83688 33968 ft 424 kts 240°
2026-05-07 08:28 50.48195 -119.90968 33980 ft 423 kts 240°
2026-05-07 08:28 50.44555 -119.98179 33966 ft 421 kts 240°
2026-05-07 08:29 50.40922 -120.05359 33974 ft 419 kts 240°
2026-05-07 08:29 50.37300 -120.12504 33989 ft 420 kts 240°
2026-05-07 08:30 50.33648 -120.19690 33998 ft 422 kts 240°
2026-05-07 08:30 50.29985 -120.26868 33998 ft 422 kts 240°
2026-05-07 08:31 50.26328 -120.34020 34017 ft 422 kts 240°
2026-05-07 08:31 50.22720 -120.41055 34023 ft 421 kts 240°
2026-05-07 08:32 50.19055 -120.48184 34028 ft 422 kts 240°
2026-05-07 08:32 50.15378 -120.55315 34025 ft 421 kts 240°
2026-05-07 08:33 50.13549 -120.58850 33752 ft 417 kts 240°
2026-05-07 08:33 50.11734 -120.62356 33185 ft 414 kts 239°
2026-05-07 08:33 50.09930 -120.65839 32571 ft 411 kts 239°
2026-05-07 08:33 50.08140 -120.69291 31925 ft 408 kts 239°
2026-05-07 08:34 50.06362 -120.72714 31333 ft 405 kts 239°
2026-05-07 08:34 50.04600 -120.76104 30733 ft 402 kts 238°
2026-05-07 08:34 50.02847 -120.79471 30165 ft 399 kts 238°
2026-05-07 08:34 50.01109 -120.82814 29513 ft 396 kts 239°
2026-05-07 08:35 49.99404 -120.86148 28877 ft 393 kts 239°
2026-05-07 08:35 49.97710 -120.89457 28267 ft 390 kts 239°
2026-05-07 08:35 49.96016 -120.92733 27642 ft 388 kts 238°
2026-05-07 08:35 49.94347 -120.95982 26994 ft 384 kts 241°
2026-05-07 08:36 49.92928 -120.99445 26376 ft 378 kts 246°
2026-05-07 08:36 49.91606 -121.02939 25852 ft 373 kts 246°
2026-05-07 08:36 49.90301 -121.06403 25245 ft 371 kts 245°
2026-05-07 08:36 49.88999 -121.09853 24649 ft 371 kts 245°
2026-05-07 08:37 49.87693 -121.13290 24123 ft 368 kts 245°
2026-05-07 08:37 49.86387 -121.16708 23532 ft 368 kts 244°
2026-05-07 08:37 49.85087 -121.20101 22942 ft 365 kts 244°
2026-05-07 08:37 49.83795 -121.23470 22397 ft 362 kts 244°
2026-05-07 08:38 49.82512 -121.26812 21818 ft 360 kts 244°
2026-05-07 08:38 49.81238 -121.30128 21262 ft 357 kts 243°
2026-05-07 08:38 49.79972 -121.33423 20670 ft 356 kts 243°
2026-05-07 08:38 49.78709 -121.36704 20122 ft 354 kts 243°
2026-05-07 08:39 49.77454 -121.39955 19643 ft 349 kts 243°
2026-05-07 08:39 49.76205 -121.43177 19078 ft 349 kts 243°
2026-05-07 08:39 49.74957 -121.46395 18533 ft 351 kts 242°
2026-05-07 08:39 49.73645 -121.49797 18403 ft 384 kts 242°
2026-05-07 08:40 49.72241 -121.53442 18391 ft 400 kts 242°
2026-05-07 08:40 49.70813 -121.57124 18347 ft 397 kts 242°
2026-05-07 08:40 49.69403 -121.60737 18247 ft 387 kts 242°
2026-05-07 08:40 49.68037 -121.64231 18115 ft 373 kts 242°
2026-05-07 08:41 49.66724 -121.67588 17967 ft 358 kts 242°
2026-05-07 08:41 49.65462 -121.70815 17748 ft 346 kts 242°
2026-05-07 08:41 49.64228 -121.73972 17253 ft 341 kts 242°
2026-05-07 08:41 49.63025 -121.77052 16717 ft 339 kts 242°
2026-05-07 08:42 49.61810 -121.80166 16199 ft 338 kts 242°
2026-05-07 08:42 49.60599 -121.83266 15689 ft 336 kts 242°
2026-05-07 08:42 49.59394 -121.86343 15149 ft 335 kts 241°
2026-05-07 08:42 49.58194 -121.89406 14676 ft 333 kts 241°
2026-05-07 08:43 49.56999 -121.92448 14187 ft 331 kts 241°
2026-05-07 08:43 49.55810 -121.95470 13668 ft 330 kts 240°
2026-05-07 08:43 49.54621 -121.98493 13107 ft 329 kts 240°
2026-05-07 08:43 49.53436 -122.01501 12556 ft 328 kts 240°
2026-05-07 08:44 49.52251 -122.04506 11998 ft 328 kts 240°
2026-05-07 08:44 49.51058 -122.07504 11389 ft 329 kts 239°
2026-05-07 08:44 49.49857 -122.10495 10896 ft 328 kts 238°
2026-05-07 08:44 49.48659 -122.13470 10403 ft 327 kts 237°
2026-05-07 08:45 49.47462 -122.16440 9853 ft 327 kts 237°
2026-05-07 08:45 49.46276 -122.19391 9401 ft 322 kts 238°
2026-05-07 08:45 49.45121 -122.22299 8984 ft 315 kts 238°
2026-05-07 08:45 49.43989 -122.25165 8522 ft 312 kts 238°
2026-05-07 08:46 49.42881 -122.27963 8102 ft 308 kts 238°
2026-05-07 08:46 49.41772 -122.30752 7668 ft 305 kts 238°
2026-05-07 08:46 49.40674 -122.33510 7259 ft 300 kts 238°
2026-05-07 08:46 49.39588 -122.36214 6879 ft 295 kts 238°
2026-05-07 08:47 49.38478 -122.38833 6489 ft 291 kts 237°
2026-05-07 08:47 49.37357 -122.41405 6039 ft 289 kts 236°
2026-05-07 08:47 49.36267 -122.43898 5894 ft 275 kts 236°
2026-05-07 08:47 49.35235 -122.46281 5776 ft 261 kts 236°
2026-05-07 08:48 49.34248 -122.48573 5520 ft 255 kts 237°
2026-05-07 08:48 49.33280 -122.50830 5186 ft 252 kts 236°
2026-05-07 08:48 49.32344 -122.53004 5018 ft 244 kts 236°
2026-05-07 08:48 49.31413 -122.55161 4916 ft 233 kts 236°
2026-05-07 08:49 49.30542 -122.57180 4815 ft 222 kts 236°
2026-05-07 08:49 49.29701 -122.59128 4621 ft 218 kts 236°
2026-05-07 08:49 49.28863 -122.61066 4346 ft 218 kts 236°
2026-05-07 08:49 49.28038 -122.62973 4077 ft 217 kts 236°
2026-05-07 08:50 49.27477 -122.64271 3916 ft 216 kts 236°
2026-05-07 08:50 49.26650 -122.66183 3661 ft 215 kts 236°
2026-05-07 08:50 49.25559 -122.68700 3317 ft 214 kts 236°
2026-05-07 08:50 49.24746 -122.70605 3067 ft 213 kts 240°
2026-05-07 08:51 49.24373 -122.72756 3005 ft 216 kts 269°
2026-05-07 08:51 49.24592 -122.75045 2995 ft 216 kts 279°
2026-05-07 08:51 49.24869 -122.77311 3000 ft 216 kts 279°
2026-05-07 08:51 49.25054 -122.78847 2999 ft 218 kts 279°
2026-05-07 08:52 49.25326 -122.81140 2996 ft 219 kts 279°
2026-05-07 08:52 49.25596 -122.83431 2996 ft 219 kts 279°
2026-05-07 08:52 49.25864 -122.85726 2994 ft 219 kts 279°
2026-05-07 08:52 49.26128 -122.87988 2996 ft 219 kts 279°
2026-05-07 08:53 49.26394 -122.90277 2993 ft 219 kts 279°
2026-05-07 08:53 49.26660 -122.92573 2995 ft 219 kts 279°
2026-05-07 08:53 49.26925 -122.94863 2996 ft 219 kts 279°
2026-05-07 08:53 49.27189 -122.97152 2996 ft 219 kts 278°
2026-05-07 08:54 49.27446 -122.99445 2996 ft 218 kts 278°
2026-05-07 08:54 49.27703 -123.01741 2994 ft 218 kts 278°
2026-05-07 08:54 49.27964 -123.04032 2995 ft 219 kts 279°
2026-05-07 08:54 49.28233 -123.06325 2990 ft 219 kts 279°
2026-05-07 08:55 49.28506 -123.08613 2991 ft 219 kts 279°
2026-05-07 08:55 49.28781 -123.10905 2990 ft 219 kts 279°
2026-05-07 08:55 49.29055 -123.13197 2990 ft 219 kts 279°
2026-05-07 08:55 49.29327 -123.15489 2991 ft 219 kts 279°
2026-05-07 08:56 49.29598 -123.17783 2991 ft 219 kts 279°
2026-05-07 08:56 49.29868 -123.20082 2988 ft 220 kts 279°
2026-05-07 08:56 49.30139 -123.22386 2987 ft 219 kts 279°
2026-05-07 08:56 49.30409 -123.24687 2990 ft 219 kts 279°
2026-05-07 08:57 49.30677 -123.26990 2990 ft 220 kts 279°
2026-05-07 08:57 49.30931 -123.29297 2991 ft 220 kts 279°
2026-05-07 08:57 49.31179 -123.31604 2987 ft 220 kts 278°
2026-05-07 08:57 49.31427 -123.33911 2987 ft 219 kts 278°
2026-05-07 08:58 49.31674 -123.36218 2988 ft 220 kts 278°
2026-05-07 08:58 49.31917 -123.38530 2988 ft 220 kts 278°
2026-05-07 08:58 49.32157 -123.40842 2988 ft 219 kts 278°
2026-05-07 08:58 49.32375 -123.43144 2985 ft 215 kts 272°
2026-05-07 08:59 49.32045 -123.45354 2987 ft 217 kts 240°
2026-05-07 08:59 49.30952 -123.46924 2985 ft 220 kts 205°
2026-05-07 08:59 49.29496 -123.47646 2989 ft 220 kts 196°
2026-05-07 08:59 49.28017 -123.48269 2988 ft 221 kts 196°
2026-05-07 09:00 49.26539 -123.48892 2988 ft 220 kts 196°
2026-05-07 09:00 49.25062 -123.49525 2991 ft 221 kts 195°
2026-05-07 09:00 49.23550 -123.49452 2992 ft 223 kts 156°
2026-05-07 09:00 49.22428 -123.47895 2993 ft 221 kts 118°
2026-05-07 09:01 49.21882 -123.45704 2998 ft 222 kts 103°
2026-05-07 09:01 49.21574 -123.43395 2995 ft 222 kts 98°
2026-05-07 09:01 49.21319 -123.41071 2899 ft 222 kts 99°
2026-05-07 09:01 49.21049 -123.38717 2477 ft 226 kts 99°
2026-05-07 09:02 49.20781 -123.36362 2157 ft 222 kts 99°
2026-05-07 09:02 49.20522 -123.34080 1822 ft 211 kts 99°
2026-05-07 09:02 49.20280 -123.31956 1541 ft 195 kts 99°
2026-05-07 09:02 49.20063 -123.30050 1318 ft 175 kts 99°
2026-05-07 09:03 49.19865 -123.28305 1077 ft 159 kts 99°
2026-05-07 09:03 49.19684 -123.26710 850 ft 145 kts 99°
2026-05-07 09:03 49.19518 -123.25257 670 ft 133 kts 100°
2026-05-07 09:03 49.19365 -123.23911 493 ft 127 kts 99°
2026-05-07 09:04 49.19213 -123.22577 327 ft 125 kts 99°
2026-05-07 09:04 49.19064 -123.21269 172 ft 124 kts 99°
2026-05-07 09:04 49.18917 -123.19971 19 ft 121 kts 99°
2026-05-07 09:04 49.18820 -123.19116 19 ft 51 kts 99°
2026-05-07 09:05 49.18780 -123.18763 16 ft 26 kts 99°
2026-05-07 09:05 49.18774 -123.18498 16 ft 19 kts 85°
2026-05-07 09:05 49.18811 -123.18315 18 ft 19 kts 72°
2026-05-07 09:05 49.18852 -123.18112 19 ft 19 kts 48°
2026-05-07 09:06 49.18981 -123.18066 18 ft 19 kts
2026-05-07 09:06 49.19046 -123.18055 19 ft 5 kts
2026-05-07 09:06 49.19095 -123.18083 19 ft 9 kts 312°
2026-05-07 09:06 49.19110 -123.18197 18 ft 14 kts 268°
2026-05-07 09:07 49.19108 -123.18337 19 ft 15 kts 275°
2026-05-07 09:07 49.19142 -123.18499 17 ft 18 kts 313°
2026-05-07 09:07 49.19197 -123.18494 20 ft 0 kts 34°